Back to catalog

SL-8 DEB

AliveLEO
NORAD 39836·DEBRIS·🇷🇺 Russia

Launched Feb 12, 1991 from Plesetsk Cosmodrome

Loading…

Next Passes (next 24 hours)

TLE

StaleSource: Space-Track

Epoch: Sep 5, 2026, 03:59 UTC

1 39836U 91009DU  26248.16636134 -.00000001  00000-0  11870-3 0  9992
2 39836  73.9123  27.8581 0138218   3.0202 178.8267 12.29446981551441

Track SL-8 DEB in real time with AllMySat

Download on the App Store